STARLINK-31037, 58536

Orbit data source: Space-Track

STARLINK-31037, 58536 is a payload satellite owned by SpaceX/Seattle (US) in LEO that was launched on Fri, 08 Dec 2023 UTC via an FALCON 9 launch vehicle from the Air Force Western Test Range (AFWTR). Payload-class satellites include a variety of spacecraft equipped with specific instruments for various scientific and technological missions. These include communications satellites like Starlink; space stations such as the ISS; scientific satellites like the Hubble; Earth observation satellites from companies like Planet Labs, Umbra, and HawkEye 360; GPS; miniature CubeSats for education and research; and military/defense satellites.

Loading next visibility...
Identifier
58536, 2023-192F
Orbit
LEO
Country
Flag of USUS
Related business
Manufacturer
SpaceX/Seattle
Mission
Operational Commercial Communications
Bus & Motor
STARLINK V2M, Unknown motor
Mass
730 kg wet, ~700 kg dry
Launch date (UTC)
2023-12-08 (3 years ago)
Launch vehicle
FALCON 9
Launch site
Air Force Western Test Range (AFWTR)
Object type
Payload
Rocket body
Debris
Shape & HBR
Box + 2 Pan, 17.7 m
Radar Cross Section
33.884 m², Large (>1 m²)

Expand to show TLE details & history
Last TLE update: 3 days ago

TLE from 3 days ago
0 STARLINK-31037
1 58536U 23192F   26170.78725795 -.00000249  00000-0  37704-5 0  9992
2 58536  53.1618 307.3490 0001361  60.0182 300.0955 15.34394092141634
Epoch: 2026-06-19T18:53Z
TLE epoch observation values (Epoch: 2026-06-19T18:53:39.086Z)
Latitude
-0.00009°
Longitude
115.92485°
Altitude
463.156 km
Speed
7.636 km/s
True Right ascension
20h 29m 23s
True Declination
0° 00' 00"
Sunlit
Object was in full shadow at epoch
Visualization orbit readout
Latitude
Unknown
Longitude
Unknown
Altitude
Unknown
Speed
Unknown
Apparent Right ascension
Unknown
Apparent Declination
Unknown
Sunlit
N/A
Visualization observer readout
Local Sidereal Time
00:38:49
Azimuth
Unknown
Elevation
Unknown
Doppler factor
Unknown
Orbital elements
Apogee altitude
463.908 km
Perigee altitude
462.046 km
Semi-major axis
6,841.114 km
Eccentricity
0.00014
Inclination
53.1618°
RAAN
307.349°
Arg. of periapsis
60.0182°
True anomaly
300.08201°
Mean anomaly
300.0955°
Eccentric anomaly
300.08875°
Mean motion
3.83577 °/min
Orbital period
93.85 mins
BSTAR
0.0000037704
Loading maneuver chart data...
Computing Atmospheric mass density...
Loading historical data...
Loading historical data...
Loading historical data...
Loading historical data...
Loading historical data...
Loading historical data...
Loading historical data...

Documentation

Showing up to 5 results
|